Wetbulb
69.94 70.28 67.22 65.96 66.17 66.05 63.56 62.97 60.82 57.98 58.42 61.63 61.80 64.00 64.99 64.99 64.73 66.34 63.39 66.65 66.58 65.87 64.81 64.59 65.03 65.97 66.80 66.95 67.23 67.43 67.48 67.62 67.67 67.40 67.53 67.49 66.85 66.48
71.20 69.79 69.37 68.46 66.46 65.51 65.21 62.75 62.16 59.86 57.57 61.34 62.87 63.67 64.66 66.88 66.29 65.57 63.23 66.14 66.56 65.68 64.69 63.99 64.50 65.34 66.11 66.62 66.88 66.85 66.78 66.88 66.71 66.87 66.78 66.27 65.59 64.84
72.30 70.86 69.58 68.88 67.65 65.41 64.79 64.31 62.33 60.98 58.69 59.34 62.84 63.40 63.96 64.26 64.48 65.31 63.85 63.14 63.29 65.39 64.87 64.46 64.05 64.67 65.51 65.81 65.71 65.73 65.79 65.68 65.81 66.05 65.61 65.29 63.97 63.74
72.68 71.74 71.05 71.03 68.11 66.14 64.73 64.13 63.58 62.20 59.99 58.47 59.63 64.05 63.09 63.91 63.92 65.14 64.66 65.97 65.24 65.56 64.47 64.16 63.66 63.46 63.72 63.75 63.59 63.77 63.18 63.36 64.01 63.99 63.73 62.76 62.54 62.78
72.98 72.51 72.14 70.92 70.23 68.55 65.33 65.71 63.90 63.24 61.89 59.27 59.45 63.51 62.74 63.81 62.41 63.24 63.28 64.66 65.73 67.01 64.55 63.68 63.46 63.17 62.51 61.90 61.47 60.76 59.55 60.11 60.45 60.50 60.44 60.22 61.09 61.93
73.39 73.45 72.99 72.07 71.36 70.08 67.60 65.91 65.33 64.30 62.83 61.87 60.26 62.45 62.93 63.96 63.33 62.78 62.56 64.53 64.38 66.75 67.35 65.81 64.93 64.45 63.64 61.58 61.28 60.71 58.58 57.68 57.15 57.20 56.71 57.64 58.73 59.57
73.31 73.80 73.85 73.21 71.26 70.69 70.40 68.46 65.37 65.08 63.26 63.26 60.99 60.44 61.94 63.01 63.36 63.39 62.96 64.05 65.50 65.69 64.82 63.59 62.86 62.69 63.30 63.31 64.11 63.75 60.22 58.68 56.84 55.93 54.88 54.95 55.42 56.22
73.21 73.12 73.58 72.10 71.01 68.08 67.24 68.02 68.42 66.87 65.02 64.57 64.21 62.69 63.55 62.48 63.89 64.75 64.11 61.33 61.19 65.07 65.37 65.24 62.46 61.69 63.45 63.38 63.46 62.41 60.73 59.33 57.95 56.57 55.04 54.70 54.81 54.68
73.71 73.56 73.66 74.04 71.53 73.24 67.52 66.13 66.28 65.30 66.77 66.56 65.32 64.82 64.37 64.81 64.32 63.77 64.98 64.21 64.24 64.26 65.41 64.64 63.37 63.87 64.69 64.07 61.74 61.31 60.27 58.91 58.48 56.93 56.01 55.12 53.87 52.43
74.37 74.20 73.88 73.76 73.63 73.00 73.48 70.09 69.52 70.11 67.40 67.00 67.04 66.94 66.95 66.92 65.81 65.55 65.82 65.68 64.24 63.57 64.85 62.77 62.76 64.00 63.48 63.70 61.29 61.16 59.55 58.53 57.65 56.31 55.36 53.87 51.60 50.12
74.99 74.78 74.74 74.37 69.75 64.89 72.64 72.43 71.16 70.43 68.16 63.48 64.38 63.42 61.90 61.39 64.06 65.32 64.31 63.42 63.07 63.60 64.14 64.12 60.93 61.77 61.19 60.84 60.90 60.29 58.44 57.23 56.08 55.82 55.55 53.48 50.51 49.04
74.66 75.23 67.41 71.69 65.40 62.59 70.87 72.70 71.77 72.34 71.44 71.28 67.76 64.97 62.26 63.18 61.52 66.77 66.62 63.85 63.47 61.16 63.88 62.79 60.67 60.47 57.69 58.78 59.00 60.30 59.04 55.79 54.39 53.99 53.92 52.56 49.85 47.22
74.30 74.32 75.06 63.28 60.89 59.60 61.19 73.91 72.96 73.37 72.00 71.54 71.28 69.79 68.95 68.13 66.35 67.62 68.63 66.86 64.49 63.92 63.99 64.77 61.91 58.99 58.65 55.43 56.53 57.27 57.52 53.71 53.68 52.54 50.82 49.73 49.08 49.39
75.08 75.79 75.11 62.40 58.52 58.07 60.02 63.89 62.23 63.69 73.37 73.42 71.16 70.23 70.12 68.62 68.38 68.39 68.56 68.57 68.74 67.35 65.30 66.36 62.92 61.00 59.78 52.38 53.15 53.85 54.18 52.27 51.27 50.76 49.70 48.94 48.59 48.76
76.14 72.69 64.65 59.70 56.75 58.56 57.82 60.23 59.74 69.23 71.91 72.55 72.53 71.74 70.88 71.23 70.31 68.71 68.58 68.59 68.31 67.67 65.92 66.43 63.23 63.63 61.56 56.03 52.86 51.42 50.78 50.73 51.42 49.70 48.50 49.29 49.74 47.80
63.94 68.94 67.54 63.96 60.69 64.99 64.97 63.41 64.44 68.22 70.47 71.30 72.23 73.66 73.44 71.69 70.00 68.88 67.03 67.00 66.16 65.79 65.24 65.34 64.16 59.37 56.01 55.87 55.42 50.07 48.39 47.33 48.11 47.89 48.53 48.27 47.18 47.61
63.94 69.28 69.10 69.80 71.34 72.58 73.38 73.17 71.69 68.51 67.16 68.83 70.32 71.51 72.41 72.55 70.19 69.05 67.19 66.51 65.46 64.91 62.69 61.36 60.29 60.45 59.54 54.16 52.05 52.29 48.31 46.90 47.86 46.18 46.80 45.89 46.31 46.68
60.77 64.49 66.07 67.38 68.88 70.03 71.79 72.35 72.44 70.11 70.19 69.80 69.76 70.32 70.56 71.01 71.13 68.69 67.14 65.74 64.97 65.32 63.40 60.56 58.44 56.14 54.47 54.02 56.14 52.34 48.18 46.56 46.36 47.78 45.60 44.79 44.16 47.34
61.26 60.26 60.68 62.39 62.87 62.74 63.64 63.14 62.76 63.82 64.87 65.20 66.29 67.84 68.98 69.77 68.49 68.46 66.89 65.74 65.09 65.46 64.48 60.04 58.37 59.23 54.56 51.85 51.54 52.01 48.42 47.20 47.36 47.34 46.23 45.57 45.26 45.79
57.57 57.43 57.65 58.20 58.70 59.26 59.26 59.56 60.89 62.23 62.71 63.23 63.64 64.31 65.05 65.86 65.18 65.15 65.60 66.67 65.51 65.11 63.56 60.46 60.35 58.67 55.65 52.56 48.16 50.42 49.01 47.88 47.08 45.91 45.47 45.86 46.05 50.45
57.79 58.92 58.84 60.50 60.72 60.74 60.02 60.35 60.31 60.08 59.42 61.40 62.91 64.60 63.35 61.52 60.58 60.73 62.59 59.01 60.89 64.33 61.25 58.48 58.34 56.15 53.39 52.94 48.47 46.61 49.55 48.76 49.37 47.14 45.14 45.39 43.44 42.58
58.33 58.85 59.70 60.18 59.92 59.74 59.78 59.24 59.36 58.82 58.41 58.27 58.41 58.85 60.44 59.18 59.60 60.02 59.76 58.81 58.09 57.31 56.85 56.71 55.74 54.22 51.70 49.80 45.74 45.01 46.05 48.47 49.45 50.68 50.96 49.65 44.62 41.48
61.17 62.32 61.68 59.96 60.31 60.53 60.23 60.41 59.58 59.66 58.33 58.51 57.77 58.09 59.64 60.73 60.22 59.46 59.19 58.61 56.75 55.62 55.32 55.24 54.52 52.66 49.29 48.50 46.74 44.98 44.57 46.26 47.35 47.38 47.40 51.44 51.27 51.17
MSLP
1019.68 1020.00 1020.19 1020.15 1020.13 1020.21 1020.43 1020.49 1021.03 1021.75 1021.65 1020.87 1020.72 1020.13 1020.44 1020.77 1020.88 1021.05 1021.31 1021.42 1021.44 1021.46 1021.47 1021.51 1021.64 1021.85 1021.94 1022.01 1021.93 1022.10 1022.20 1022.27 1022.17 1022.14 1022.49 1022.50 1022.55 1022.43
1019.24 1019.43 1019.53 1019.50 1019.60 1019.82 1019.98 1020.13 1020.21 1020.71 1021.24 1020.41 1020.13 1019.78 1019.78 1020.14 1020.35 1020.57 1020.74 1020.84 1020.94 1020.99 1021.04 1021.15 1021.25 1021.22 1021.28 1021.41 1021.59 1021.74 1021.91 1022.03 1022.11 1021.95 1021.99 1022.15 1022.26 1022.38
1018.76 1018.88 1019.07 1019.07 1019.10 1019.31 1019.51 1019.67 1020.06 1020.18 1020.55 1019.98 1019.84 1019.45 1019.83 1019.94 1020.00 1020.27 1020.43 1020.63 1020.63 1020.82 1020.88 1020.99 1021.16 1021.26 1021.13 1021.02 1021.15 1021.48 1021.56 1021.67 1021.79 1021.88 1021.82 1021.94 1022.12 1022.17
1018.16 1018.43 1018.45 1018.56 1018.67 1018.79 1018.94 1019.17 1019.37 1019.49 1019.80 1019.96 1019.68 1019.65 1019.59 1019.58 1019.43 1019.86 1019.72 1019.70 1019.95 1019.99 1020.24 1020.38 1020.64 1020.82 1020.76 1020.66 1020.74 1021.07 1021.19 1021.35 1021.33 1021.58 1021.80 1021.43 1021.83 1021.88
1017.31 1017.62 1017.69 1018.02 1018.17 1018.34 1018.58 1018.79 1018.85 1018.98 1019.28 1019.37 1019.34 1019.21 1019.34 1019.24 1019.46 1019.35 1019.50 1019.48 1019.52 1019.40 1019.43 1019.69 1019.86 1019.87 1020.07 1020.27 1020.29 1020.48 1020.61 1020.65 1020.88 1021.06 1021.39 1021.53 1021.60 1021.69
1016.45 1016.69 1016.90 1017.14 1017.30 1017.64 1018.05 1018.22 1018.43 1018.86 1019.09 1019.15 1019.05 1019.15 1019.15 1018.98 1018.84 1019.02 1019.40 1019.20 1018.99 1018.73 1018.62 1018.66 1018.75 1018.89 1019.09 1019.33 1019.56 1019.76 1019.93 1020.20 1020.45 1020.65 1020.78 1020.75 1021.22 1021.30
1015.58 1015.75 1015.84 1015.95 1016.06 1016.35 1016.89 1017.09 1017.54 1017.93 1018.23 1018.48 1018.76 1018.60 1018.51 1018.46 1018.15 1018.28 1018.69 1018.61 1018.54 1018.43 1018.53 1018.38 1018.41 1018.65 1018.74 1018.90 1018.95 1019.15 1019.23 1019.48 1019.79 1020.16 1020.29 1020.45 1020.68 1021.00
1014.52 1014.64 1014.85 1015.07 1015.15 1015.29 1015.55 1015.68 1015.97 1016.48 1016.84 1017.21 1017.18 1017.37 1016.98 1016.87 1017.02 1017.14 1017.52 1018.09 1018.06 1017.24 1017.69 1017.38 1017.52 1017.62 1017.38 1017.63 1017.89 1018.55 1019.02 1019.05 1019.18 1019.50 1019.83 1020.09 1020.19 1020.28
1013.31 1013.57 1013.75 1013.84 1014.07 1014.41 1014.74 1014.82 1014.82 1014.75 1014.80 1015.28 1015.32 1015.24 1015.27 1014.99 1015.45 1016.14 1016.44 1016.68 1016.48 1016.49 1016.74 1016.49 1016.59 1016.40 1016.23 1016.53 1016.74 1017.29 1018.00 1018.35 1018.78 1019.03 1019.37 1019.59 1019.47 1019.63
1012.20 1012.34 1012.38 1012.51 1012.70 1013.14 1013.63 1014.02 1014.05 1013.64 1013.61 1013.73 1013.57 1013.19 1013.04 1013.40 1013.88 1014.16 1014.32 1014.60 1014.91 1014.71 1014.89 1015.60 1015.88 1016.04 1015.90 1016.01 1015.88 1016.52 1017.03 1017.59 1017.88 1018.19 1018.58 1019.11 1019.36 1019.52
1011.02 1011.05 1011.10 1011.23 1011.62 1012.28 1012.65 1012.77 1012.63 1011.73 1011.84 1012.22 1012.03 1011.79 1012.10 1012.39 1012.59 1013.43 1013.68 1014.36 1014.03 1013.87 1013.50 1013.85 1014.86 1015.18 1015.29 1015.53 1015.75 1015.70 1016.16 1016.77 1017.11 1017.36 1017.95 1018.60 1019.03 1019.45
1009.98 1009.69 1009.90 1010.34 1010.82 1011.16 1011.49 1011.51 1011.00 1010.19 1011.41 1011.48 1011.62 1011.64 1011.57 1011.49 1011.76 1011.82 1012.10 1012.36 1012.57 1013.08 1012.85 1013.36 1013.77 1014.27 1015.20 1014.73 1014.61 1015.07 1015.93 1016.31 1016.60 1016.75 1017.21 1017.84 1018.57 1019.24
1008.88 1008.70 1008.85 1009.17 1009.54 1009.88 1010.05 1009.90 1009.17 1009.45 1009.57 1009.88 1009.80 1009.80 1009.93 1010.15 1010.25 1010.39 1010.43 1010.41 1010.56 1010.25 1010.54 1011.56 1012.38 1013.41 1013.64 1014.35 1014.97 1015.16 1015.01 1015.66 1016.44 1016.78 1017.15 1017.42 1017.89 1018.54
1007.74 1007.59 1007.71 1007.95 1008.10 1008.33 1008.74 1008.53 1008.36 1008.51 1008.71 1008.70 1008.67 1008.31 1008.35 1008.64 1008.70 1008.93 1008.82 1008.31 1007.99 1007.93 1009.08 1009.47 1010.87 1011.07 1012.73 1013.93 1015.12 1015.06 1015.61 1015.46 1015.42 1016.06 1016.64 1016.70 1017.32 1017.82
1007.09 1007.02 1007.00 1007.06 1007.26 1007.55 1007.66 1007.46 1007.62 1008.07 1008.05 1007.84 1007.37 1006.85 1006.83 1006.82 1007.16 1007.15 1007.12 1007.22 1007.64 1007.64 1008.08 1008.10 1008.88 1009.76 1010.33 1011.69 1012.92 1014.45 1014.85 1014.78 1015.07 1015.53 1016.19 1016.38 1016.66 1017.01
1007.06 1006.93 1006.90 1006.94 1006.99 1006.95 1007.09 1007.07 1007.30 1007.06 1006.86 1006.41 1006.12 1005.57 1005.31 1005.25 1005.26 1005.18 1005.53 1006.08 1006.45 1006.63 1005.93 1006.12 1007.04 1008.10 1009.78 1010.84 1012.12 1012.96 1013.49 1014.41 1014.56 1015.03 1015.47 1015.80 1016.25 1016.40
1006.74 1006.63 1006.60 1006.55 1006.42 1006.28 1006.18 1006.08 1005.99 1006.01 1006.04 1005.61 1005.29 1004.76 1004.24 1003.98 1003.73 1003.79 1003.82 1003.71 1003.77 1003.91 1004.78 1005.57 1005.86 1006.20 1007.77 1010.04 1010.94 1012.04 1013.04 1013.99 1014.11 1014.53 1015.35 1015.69 1015.83 1016.09
1006.92 1006.80 1006.69 1006.60 1006.54 1006.30 1006.10 1005.88 1005.80 1005.85 1005.68 1005.38 1004.82 1004.20 1003.45 1002.74 1002.15 1002.21 1001.95 1002.21 1002.01 1001.83 1002.30 1004.32 1005.75 1005.87 1007.27 1008.59 1009.62 1010.63 1011.21 1012.48 1013.67 1014.24 1014.59 1015.28 1015.97 1015.78
1007.01 1007.14 1007.13 1007.02 1006.91 1006.72 1006.56 1006.43 1006.24 1005.98 1005.59 1005.19 1004.66 1003.76 1002.77 1001.97 1001.62 1001.21 1000.30 1000.32 999.08 998.61 998.82 1000.05 1002.63 1004.40 1006.05 1008.38 1009.31 1009.07 1010.18 1010.81 1012.56 1013.79 1014.39 1014.43 1015.30 1015.39
1007.18 1007.23 1007.17 1007.01 1006.82 1006.67 1006.50 1006.45 1006.38 1005.97 1005.51 1005.02 1004.36 1003.49 1002.61 1002.09 1001.46 1000.65 999.34 998.94 997.80 997.29 996.65 999.10 998.43 1000.84 1002.06 1005.54 1008.77 1009.44 1008.97 1010.53 1011.73 1012.78 1013.80 1014.42 1014.60 1014.85
1007.10 1006.92 1006.79 1006.70 1006.67 1006.60 1006.48 1006.31 1006.11 1005.75 1005.50 1004.87 1003.98 1003.15 1002.52 1001.98 1001.40 1000.24 998.59 997.56 997.39 997.62 998.57 999.32 998.37 1001.15 1002.74 1005.55 1007.87 1009.45 1009.41 1009.87 1010.28 1011.47 1013.06 1013.69 1014.25 1014.53
1006.98 1006.84 1006.74 1006.64 1006.56 1006.40 1006.26 1005.96 1005.55 1005.32 1005.26 1004.74 1004.19 1003.98 1003.60 1002.75 1001.94 1001.31 1000.22 999.69 999.46 999.54 1000.66 1001.99 1002.72 1003.60 1004.70 1006.53 1008.28 1009.22 1009.71 1010.14 1010.49 1011.08 1011.69 1011.44 1013.09 1013.40
1007.44 1007.14 1006.84 1006.67 1006.37 1006.04 1005.73 1005.39 1005.23 1005.02 1004.78 1004.54 1004.18 1003.89 1003.72 1003.27 1002.83 1002.54 1001.71 1001.51 1001.78 1002.00 1002.17 1003.61 1004.67 1005.15 1006.52 1007.89 1008.50 1008.90 1009.19 1010.11 1010.88 1011.68 1011.77 1011.29 1011.92 1011.96
Wind_Speed
6 5 4 4 4 3 3 3 5 3 5 4 3 6 6 5 9 9 8 13 14 13 13 12 12 11 10 11 11 10 9 8 8 6 5 4 4 5
5 6 6 4 5 4 4 3 3 5 3 5 6 5 7 7 9 10 10 12 16 15 14 14 13 13 12 11 11 9 9 8 8 6 4 3 4 4
6 7 7 6 5 5 3 3 3 4 5 4 4 4 5 6 6 7 6 7 6 14 14 13 13 12 13 12 11 8 9 8 8 6 5 2 4 5
10 8 11 6 7 6 5 6 5 5 5 7 3 3 5 6 6 9 9 9 7 11 16 16 14 13 13 14 11 9 10 8 9 8 7 6 5 4
12 12 12 9 10 6 5 6 4 3 4 4 5 3 3 2 3 5 5 7 4 11 12 16 15 15 15 14 12 12 12 12 11 9 9 8 7 5
12 13 13 13 14 10 7 8 5 4 4 3 3 3 3 4 2 6 6 4 8 6 9 9 12 15 16 14 14 13 13 12 11 11 10 9 8 7
12 12 14 16 20 16 10 10 8 8 5 6 4 4 4 4 9 5 6 6 7 5 4 4 4 4 6 12 10 13 14 14 13 12 10 9 8 7
14 14 14 16 18 20 20 18 16 13 12 9 10 9 14 7 4 10 9 4 8 5 7 9 6 6 7 6 11 10 14 15 14 13 10 9 9 7
16 14 13 13 15 15 18 19 19 21 21 15 16 15 15 14 12 7 10 9 12 4 6 10 5 9 7 7 13 14 15 15 14 13 11 11 8 6
16 16 17 16 16 15 15 13 18 20 18 15 17 18 17 15 15 15 16 14 5 6 9 11 5 6 5 6 10 14 16 15 15 15 13 10 9 8
16 16 17 18 15 15 15 16 16 20 18 23 24 23 17 17 15 8 9 9 11 9 10 11 5 5 4 4 5 14 16 16 17 16 13 11 10 7
15 18 18 18 14 17 17 17 19 18 14 15 14 19 17 16 20 19 14 14 12 4 6 12 5 6 3 4 6 6 6 12 15 15 13 10 8 3
12 13 12 16 21 18 21 19 22 17 17 15 16 14 15 17 14 16 18 15 14 15 8 14 7 4 4 4 2 4 7 4 5 4 7 8 10 10
13 11 12 15 18 20 18 23 22 18 14 12 12 15 14 13 14 16 19 18 17 21 11 17 7 9 7 3 2 2 4 3 4 5 5 5 8 12
11 12 14 13 13 13 18 20 18 12 14 14 14 14 14 14 14 15 17 19 17 13 10 17 9 11 11 7 8 6 5 5 5 5 4 5 5 4
10 11 9 9 9 9 6 8 9 11 12 14 15 15 14 12 13 14 14 14 15 15 13 18 17 15 6 7 8 6 5 6 4 4 4 3 3 2
3 3 3 3 7 7 7 8 8 7 9 12 13 14 14 13 12 14 16 16 18 18 15 10 11 14 11 8 5 6 6 3 5 5 4 3 2 5
2 1 3 3 5 5 5 5 5 6 7 9 11 12 14 15 16 13 15 17 19 18 17 12 10 9 6 4 10 9 5 6 4 5 3 5 2 4
3 2 2 3 3 4 4 3 3 5 8 8 10 13 15 14 15 19 15 18 21 20 18 17 18 16 14 8 3 8 8 5 6 4 4 4 5 5
2 1 1 2 2 2 3 2 4 5 6 7 9 11 11 10 12 16 18 17 17 15 14 18 20 15 16 14 6 4 11 7 5 5 5 2 1 7
2 2 1 2 2 2 3 4 4 4 4 6 8 6 4 3 8 11 13 16 14 11 6 5 11 18 10 8 5 1 3 3 9 8 5 5 3 3
4 4 4 4 4 4 5 5 4 4 4 4 4 6 6 5 6 6 9 11 12 13 14 11 11 9 6 5 4 5 3 3 2 6 6 14 8 5
6 5 4 4 4 5 5 5 4 5 4 4 4 3 4 5 5 6 6 8 9 11 12 11 7 4 4 4 5 4 5 4 5 4 4 8 10 7
Wind_Direction
210 194 195 206 211 197 199 173 156 202 239 260 221 203 199 185 203 197 201 205 216 216 219 216 208 218 228 238 248 253 258 260 260 264 280 284 302 310
206 204 208 211 211 204 204 212 182 166 208 204 233 212 191 200 203 198 210 204 214 219 223 225 217 216 224 231 239 245 252 255 259 254 248 272 298 323
201 210 218 210 222 213 213 207 214 158 191 287 233 208 196 185 196 204 214 214 224 225 230 233 231 225 227 231 232 230 240 243 244 240 236 235 285 298
208 208 225 217 226 218 208 219 207 202 159 220 250 229 210 205 202 195 209 218 216 225 223 230 232 226 225 231 224 209 229 224 228 214 219 222 236 245
203 207 220 213 228 221 216 223 219 207 212 181 232 217 206 185 182 224 207 227 223 226 222 221 230 227 223 229 220 205 213 213 214 200 208 214 223 220
209 209 215 214 222 218 212 219 218 215 206 227 231 218 200 227 212 209 226 216 227 220 224 217 209 228 223 219 223 207 212 205 206 211 204 205 212 216
216 215 218 218 219 216 210 218 198 214 196 216 217 212 199 188 210 192 217 227 241 206 218 230 215 209 226 236 238 214 204 204 202 209 205 205 207 222
223 223 227 222 224 217 212 215 206 212 219 219 229 222 227 215 195 210 212 186 249 201 206 235 177 219 216 204 214 211 206 208 194 203 198 206 212 222
223 225 227 228 223 225 223 222 219 215 218 214 228 224 230 219 210 208 207 209 231 230 198 237 181 223 216 211 200 197 205 201 195 195 200 208 218 223
229 228 229 229 226 218 226 219 229 233 227 225 228 234 230 227 213 211 212 217 217 205 180 218 180 221 200 216 185 193 196 192 189 194 198 210 222 223
234 232 231 233 228 207 220 227 227 234 227 227 232 238 229 215 204 204 207 199 228 237 193 210 195 186 175 200 211 193 192 187 192 193 194 210 226 220
237 242 229 235 219 206 217 227 238 240 230 236 237 245 239 228 202 214 223 223 226 219 213 203 162 141 212 205 185 184 188 202 198 196 195 203 216 190
239 244 243 215 222 217 212 230 239 244 236 232 238 235 235 232 223 220 222 223 220 226 185 191 176 175 177 137 258 199 177 172 189 207 212 212 214 187
236 240 242 226 220 221 217 232 239 240 247 247 236 240 236 226 225 227 231 224 228 224 176 190 200 173 197 114 149 97 228 227 155 189 204 217 227 205
239 246 245 242 237 239 234 233 232 243 247 252 251 247 240 234 232 229 227 233 239 237 197 188 180 190 189 150 159 189 169 200 185 176 182 184 183 186
254 267 270 273 263 262 259 238 238 240 236 243 249 249 251 243 230 220 216 214 217 225 212 196 182 153 160 159 179 168 191 170 162 172 165 160 170 150
279 248 248 249 263 262 261 255 247 232 234 245 252 256 254 247 235 225 225 216 216 212 206 194 180 154 144 155 148 175 169 155 173 148 137 146 176 181
130 272 285 268 265 276 284 303 321 312 289 281 273 267 262 255 250 237 224 218 222 220 201 178 169 154 96 169 202 181 157 150 161 163 133 127 182 212
83 33 336 349 348 330 316 308 330 320 312 297 290 282 271 263 277 269 242 240 227 217 201 172 171 170 157 202 172 186 157 146 139 137 160 143 173 211
96 111 349 331 321 323 321 321 298 295 304 305 296 288 286 295 292 283 272 275 255 237 201 184 179 161 167 169 151 189 161 137 141 147 154 94 64 83
22 7 8 358 339 303 295 290 278 290 308 318 307 308 296 313 332 321 297 278 266 255 221 92 96 92 98 96 102 99 132 218 156 150 151 142 153 118
357 341 324 306 286 278 273 266 279 286 304 301 328 331 330 330 357 35 66 54 60 71 71 81 90 103 73 81 137 138 130 118 102 57 170 153 160 177
0 347 316 295 281 275 276 283 279 283 265 275 281 303 328 335 6 1 50 65 72 70 98 105 105 71 81 147 136 134 122 121 151 198 243 205 197 170